CW3322 Weather Reports


Display with metric or nautical units.
time (UTC)temp
F
wind
direction
speed
MPH
gust
MPH
rain 1hr
in
rain 24hr
in
rain mn
in
humidity
%
barometer
mb
20260906212021 0 0.0 0.0 0.00 0.00 0.00
20260906211527 0 0.0 0.0 0.00 0.00 0.00
20260906211021 0 0.0 0.0 0.00 0.00 0.00
20260906210527 0 0.0 0.0 0.00 0.00 0.00
20260906210051 0 0.0 0.0 0.00 0.00 0.00
20260906205527 0 0.0 0.0 0.00 0.00 0.00
20260906205051 0 0.0 0.0 0.00 0.00 0.00
20260906204515 0 0.0 0.0 0.00 0.00 0.00
20260906204151 0 0.0 0.0 0.00 0.00 0.00
20260906203515 0 0.0 0.0 0.00 0.00 0.00
20260906203021 0 0.0 0.0 0.00 0.00 0.00
20260906202515 0 0.0 0.0 0.00 0.00 0.00
20260906202021 0 0.0 0.0 0.00 0.00 0.00
20260906201545 0 0.0 0.0 0.00 0.00 0.00
20260906201021 0 0.0 0.0 0.00 0.00 0.00
20260906200515 0 0.0 0.0 0.00 0.00 0.00
20260906200022 0 0.0 0.0 0.00 0.00 0.00
20260906195545 0 0.0 0.0 0.00 0.00 0.00
20260906195022 0 0.0 0.0 0.00 0.00 0.00
20260906194516 0 0.0 0.0 0.00 0.00 0.00
20260906194036 0 0.0 0.0 0.00 0.00 0.00
20260906193529 0 0.0 0.0 0.00 0.00 0.00
20260906193023 0 0.0 0.0 0.00 0.00 0.00
20260906192517 0 0.0 0.0 0.00 0.00 0.00
20260906192023 0 0.0 0.0 0.00 0.00 0.00
20260906191547 0 0.0 0.0 0.00 0.00 0.00
20260906191023 0 0.0 0.0 0.00 0.00 0.00
20260906190517 0 0.0 0.0 0.00 0.00 0.00
20260906190024 0 0.0 0.0 0.00 0.00 0.00
20260906185547 0 0.0 0.0 0.00 0.00 0.00
20260906185024 0 0.0 0.0 0.00 0.00 0.00
20260906184518 0 0.0 0.0 0.00 0.00 0.00
20260906184024 0 0.0 0.0 0.00 0.00 0.00
20260906183548 0 0.0 0.0 0.00 0.00 0.00
20260906183024 0 0.0 0.0 0.00 0.00 0.00
20260906182518 71 0.0 0.0 0.00 0.00 0.00 57 1023.4
20260906182025 71 0.0 0.0 0.00 0.00 0.00 57 1023.4
20260906181518 71 0.0 0.0 0.00 0.00 0.00 57 1023.4
20260906181025 71 0.0 0.0 0.00 0.00 0.00 57 1023.4
20260906180519 71 0.0 0.0 0.00 0.00 0.00 57 1023.4
20260906180025 72 0.0 0.0 0.00 0.00 0.00 56 1023.4
20260906175519 72 0.0 0.0 0.00 0.00 0.00 56 1023.3
20260906175025 73 0.0 0.0 0.00 0.00 0.00 55 1023.4
20260906174549 73 0.0 0.0 0.00 0.00 0.00 54 1023.4
20260906174025 74 0.0 0.0 0.00 0.00 0.00 53 1023.4
20260906173549 75 0.0 0.0 0.00 0.00 0.00 50 1023.4
20260906173026 75 0.0 0.0 0.00 0.00 0.00 47 1023.4
20260906172549 76 0.0 0.0 0.00 0.00 0.00 46
20260906172026 76 0.0 0.0 0.00 0.00 0.00 45
20260906171520 77 0.0 0.0 0.00 0.00 0.00 44
20260906171026 77 13 0.0 0.0 0.00 0.00 0.00 43
20260906170520 77 15 0.0 1.0 0.00 0.00 0.00 42
20260906170027 78 20 0.0 2.0 0.00 0.00 0.00 42
20260906165520 78 12 0.0 2.0 0.00 0.00 0.00 41
20260906165027 78 22 1.0 2.0 0.00 0.00 0.00 41
20260906164521 78 26 0.0 2.0 0.00 0.00 0.00 41
20260906164015 79 16 0.0 2.0 0.00 0.00 0.00 41
20260906163521 79 34 1.0 3.0 0.00 0.00 0.00 41
20260906163015 79 7 0.0 2.0 0.00 0.00 0.00 40
20260906162522 80 44 1.0 6.0 0.00 0.00 0.00 39
20260906162016 81 23 1.0 3.0 0.00 0.00 0.00 38
20260906161522 82 17 1.0 5.0 0.00 0.00 0.00 37
20260906161017 82 23 1.0 2.0 0.00 0.00 0.00 37
20260906160523 82 14 1.0 2.0 0.00 0.00 0.00 37
20260906160017 82 21 1.0 6.0 0.00 0.00 0.00 37
20260906155524 82 13 0.0 3.0 0.00 0.00 0.00 37
20260906155017 82 21 1.0 5.0 0.00 0.00 0.00 38
20260906154524 82 31 1.0 5.0 0.00 0.00 0.00 38
20260906154018 82 20 1.0 2.0 0.00 0.00 0.00 38
20260906153525 82 34 1.0 5.0 0.00 0.00 0.00 38
20260906153019 82 23 1.0 5.0 0.00 0.00 0.00 39
20260906152538 82 3 0.0 2.0 0.00 0.00 0.00 38
20260906152103 82 37 2.0 6.0 0.00 0.00 0.00 39
20260906151527 82 30 1.0 5.0 0.00 0.00 0.00 40
20260906151021 81 24 1.0 5.0 0.00 0.00 0.00 40
20260906150618 82 12 1.0 2.0 0.00 0.00 0.00 40
20260906150051 82 29 1.0 3.0 0.00 0.00 0.00 39
20260906145623 82 54 1.0 5.0 0.00 0.00 0.00 40
20260906145021 82 24 1.0 6.0 0.00 0.00 0.00 40
20260906144515 82 26 1.0 3.0 0.00 0.00 0.00 40
20260906144022 83 24 1.0 4.0 0.00 0.00 0.00 40
20260906143516 83 32 1.0 5.0 0.00 0.00 0.00 39
20260906143022 82 15 0.0 5.0 0.00 0.00 0.00 39
20260906142517 82 331 1.0 5.0 0.00 0.00 0.00 39
20260906142023 82 14 1.0 2.0 0.00 0.00 0.00 38
20260906141517 82 39 1.0 5.0 0.00 0.00 0.00 39
20260906141023 82 12 1.0 5.0 0.00 0.00 0.00 39
20260906140517 82 36 1.0 8.0 0.00 0.00 0.00 39
20260906140024 82 10 1.0 3.0 0.00 0.00 0.00 39
20260906135548 82 12 1.0 3.0 0.00 0.00 0.00 38
20260906135108 82 355 1.0 2.0 0.00 0.00 0.00 39
20260906134518 82 23 2.0 7.0 0.00 0.00 0.00 38
20260906134201 82 350 0.0 2.0 0.00 0.00 0.00 40
20260906133519 82 36 1.0 5.0 0.00 0.00 0.00 39
20260906133025 82 18 1.0 3.0 0.00 0.00 0.00 38
20260906132519 81 19 1.0 5.0 0.00 0.00 0.00 39
20260906132026 80 7 1.0 2.0 0.00 0.00 0.00 40
20260906131519 80 4 2.0 5.0 0.00 0.00 0.00 41
20260906131026 80 46 2.0 7.0 0.00 0.00 0.00 41
20260906130520 81 357 1.0 6.0 0.00 0.00 0.00 41
20260906130057 81 9 2.0 5.0 0.00 0.00 0.00 40
20260906125520 81 352 2.0 8.0 0.00 0.00 0.00 40
20260906125027 80 23 1.0 5.0 0.00 0.00 0.00 42
20260906124521 81 38 1.0 5.0 0.00 0.00 0.00 42
20260906124015 81 20 1.0 5.0 0.00 0.00 0.00 42
20260906123521 80 33 1.0 6.0 0.00 0.00 0.00 42
20260906123016 80 4 1.0 5.0 0.00 0.00 0.00 42
20260906122522 79 16 1.0 2.0 0.00 0.00 0.00 44
20260906122016 78 28 1.0 6.0 0.00 0.00 0.00 45
20260906121522 79 49 1.0 7.0 0.00 0.00 0.00 43
20260906121016 79 309 2.0 6.0 0.00 0.00 0.00 44
20260906120523 79 26 2.0 6.0 0.00 0.00 0.00 44
20260906120017 79 7 1.0 3.0 0.00 0.00 0.00 45
20260906115606 78 11 1.0 3.0 0.00 0.00 0.00 45
20260906115030 79 46 2.0 6.0 0.00 0.00 0.00 44
20260906114524 78 24 2.0 5.0 0.00 0.00 0.00 45
20260906114018 78 25 1.0 3.0 0.00 0.00 0.00 46
20260906113524 77 32 1.0 5.0 0.00 0.00 0.00 46
20260906113018 77 27 2.0 10.0 0.00 0.00 0.00 45
20260906112524 77 13 2.0 5.0 0.00 0.00 0.00 47
20260906112048 77 306 2.0 6.0 0.00 0.00 0.00 46
20260906111525 77 22 1.0 5.0 0.00 0.00 0.00 47
20260906111119 77 35 1.0 5.0 0.00 0.00 0.00 46
20260906110526 77 30 1.0 5.0 0.00 0.00 0.00 47
20260906110050 76 17 1.0 5.0 0.00 0.00 0.00 48
20260906105526 76 314 1.0 3.0 0.00 0.00 0.00 48
20260906105020 75 18 1.0 5.0 0.00 0.00 0.00 49
20260906104626 75 23 2.0 8.0 0.00 0.00 0.00 49
20260906104018 74 38 2.0 5.0 0.00 0.00 0.00 50
20260906103555 74 29 1.0 5.0 0.00 0.00 0.00 51
20260906103019 74 30 2.0 4.0 0.00 0.00 0.00 51
20260906102526 75 40 1.0 8.0 0.00 0.00 0.00 52
20260906102049 75 24 1.0 5.0 0.00 0.00 0.00 52
20260906101539 74 19 1.0 3.0 0.00 0.00 0.00 53
20260906101102 74 16 1.0 5.0 0.00 0.00 0.00 54
20260906100544 74 21 2.0 5.0 0.00 0.00 0.00 53
20260906100120 74 23 1.0 2.0 0.00 0.00 0.00 55
20260906095709 73 44 1.0 5.0 0.00 0.00 0.00 55
20260906095020 72 26 2.0 5.0 0.00 0.00 0.00 56
20260906094526 72 39 2.0 6.0 0.00 0.00 0.00 57
20260906094021 72 40 2.0 5.0 0.00 0.00 0.00 57
20260906093527 71 31 1.0 5.0 0.00 0.00 0.00 58
20260906093021 71 25 1.0 2.0 0.00 0.00 0.00 58
20260906092515 70 56 2.0 5.0 0.00 0.00 0.00 59
20260906092021 71 51 2.0 8.0 0.00 0.00 0.00 59
20260906091515 71 23 1.0 10.0 0.00 0.00 0.00 58
20260906091021 71 1 2.0 5.0 0.00 0.00 0.00 59
20260906090545 70 23 1.0 3.0 0.00 0.00 0.00 59
20260906090021 70 41 2.0 5.0 0.00 0.00 0.00 60
20260906085515 69 34 1.0 5.0 0.00 0.00 0.00 60
20260906085022 69 22 1.0 5.0 0.00 0.00 0.00 61
20260906084516 69 26 1.0 4.0 0.00 0.00 0.00 61
20260906084052 69 34 1.0 5.0 0.00 0.00 0.00 61
20260906083516 69 44 1.0 5.0 0.00 0.00 0.00 62
20260906083036 69 16 2.0 5.0 0.00 0.00 0.00 61
20260906082630 69 3 0.0 2.0 0.00 0.00 0.00 63
20260906082024 69 40 1.0 6.0 0.00 0.00 0.00 61
20260906081518 68 339 1.0 2.0 0.00 0.00 0.00 63
20260906081024 68 351 1.0 2.0 0.00 0.00 0.00 63
20260906080518 67 11 1.0 2.0 0.00 0.00 0.00 64
20260906080024 67 38 1.0 3.0 0.00 0.00 0.00 65
20260906075518 66 12 1.0 5.0 0.00 0.00 0.00 65
20260906075025 66 3 1.0 5.0 0.00 0.00 0.00 65
20260906074549 66 3 1.0 5.0 0.00 0.00 0.00 67
20260906074025 65 6 1.0 5.0 0.00 0.00 0.00 67
20260906073520 65 18 1.0 2.0 0.00 0.00 0.00 68
20260906073126 64 25 1.0 4.0 0.00 0.00 0.00 69
20260906072520 64 22 1.0 5.0 0.00 0.00 0.00 69
20260906072026 64 14 1.0 2.0 0.00 0.00 0.00 71
20260906071520 64 0 1.0 2.0 0.00 0.00 0.00 70
20260906071027 63 5 1.0 2.0 0.00 0.00 0.00 72
20260906070520 62 359 0.0 2.0 0.00 0.00 0.00 75
20260906070027 61 326 0.0 0.0 0.00 0.00 0.00 77
20260906065521 59 0.0 0.0 0.00 0.00 0.00 81
20260906065015 58 322 0.0 2.0 0.00 0.00 0.00 83
20260906064521 57 323 0.0 1.0 0.00 0.00 0.00 86
20260906064015 56 0.0 0.0 0.00 0.00 0.00 87
20260906063521 55 329 0.0 1.0 0.00 0.00 0.00 89
20260906063015 55 0.0 0.0 0.00 0.00 0.00 90
20260906062521 55 332 0.0 1.0 0.00 0.00 0.00 90
20260906062016 54 0.0 0.0 0.00 0.00 0.00 91
20260906061522 53 312 0.0 1.0 0.00 0.00 0.00 94
20260906061016 52 0.0 0.0 0.00 0.00 0.00 96
20260906060815 50 0.0 0.0 0.00 0.00 0.00 97
20260906060016 50 0.0 0.0 0.00 0.00 0.00 99
20260906055909 49 0.0 0.0 0.00 0.00 0.00 99
20260906055017 48 0.0 0.0 0.00 0.00 0.00 99
20260906054523 48 0.0 0.0 0.00 0.00 0.00 99
20260906054017 47 0.0 0.0 0.00 0.00 0.00 99
20260906053523 47 0.0 0.0 0.00 0.00 0.00 99
20260906053017 47 0.0 0.0 0.00 0.00 0.00 99
20260906052523 47 0.0 0.0 0.00 0.00 0.00 99
20260906052017 0 0.0 0.0 0.00 0.00 0.00
20260906051524 0 0.0 0.0 0.00 0.00 0.00
20260906051047 0 0.0 0.0 0.00 0.00 0.00
20260906050524 0 0.0 0.0 0.00 0.00 0.00
20260906050018 0 0.0 0.0 0.00 0.00 0.00
20260906045524 0 0.0 0.0 0.00 0.00 0.00
20260906045048 0 0.0 0.0 0.00 0.00 0.00
20260906044524 0 0.0 0.0 0.00 0.00 0.00
20260906044049 0 0.0 0.0 0.00 0.00 0.00
20260906043525 0 0.0 0.0 0.00 0.00 0.00
20260906043019 0 0.0 0.0 0.00 0.00 0.00
20260906042526 0 0.0 0.0 0.00 0.00 0.00
20260906042020 0 0.0 0.0 0.00 0.00 0.00
20260906041526 0 0.0 0.0 0.00 0.00 0.00
20260906041021 0 0.0 0.0 0.00 0.00 0.00
20260906040527 0 0.0 0.0 0.00 0.00 0.00
20260906040021 0 0.0 0.0 0.00 0.00 0.00
20260906035545 0 0.0 0.0 0.00 0.00 0.00
20260906035021 0 0.0 0.0 0.00 0.00 0.00
20260906034515 0 0.0 0.0 0.00 0.00 0.00
20260906034051 0 0.0 0.0 0.00 0.00 0.00
20260906033515 0 0.0 0.0 0.00 0.00 0.00
20260906033022 0 0.0 0.0 0.00 0.00 0.00
20260906032516 0 0.0 0.0 0.00 0.00 0.00
20260906032022 0 0.0 0.0 0.00 0.00 0.00
20260906031516 0 0.0 0.0 0.00 0.00 0.00
20260906031022 0 0.0 0.0 0.00 0.00 0.00
20260906030546 0 0.0 0.0 0.00 0.00 0.00
20260906030022 0 0.0 0.0 0.00 0.00 0.00
20260906025516 0 0.0 0.0 0.00 0.00 0.00
20260906025023 0 0.0 0.0 0.00 0.00 0.00
20260906024517 0 0.0 0.0 0.00 0.00 0.00
20260906024023 0 0.0 0.0 0.00 0.00 0.00
20260906023517 0 0.0 0.0 0.00 0.00 0.00
20260906023037 0 0.0 0.0 0.00 0.00 0.00
20260906022531 0 0.0 0.0 0.00 0.00 0.00
20260906022025 0 0.0 0.0 0.00 0.00 0.00
20260906021519 0 0.0 0.0 0.00 0.00 0.00
20260906021024 0 0.0 0.0 0.00 0.00 0.00
20260906020518 0 0.0 0.0 0.00 0.00 0.00
20260906020024 0 0.0 0.0 0.00 0.00 0.00
20260906015519 0 0.0 0.0 0.00 0.00 0.00
20260906015025 0 0.0 0.0 0.00 0.00 0.00
20260906014519 0 0.0 0.0 0.00 0.00 0.00
20260906014025 0 0.0 0.0 0.00 0.00 0.00
20260906013519 0 0.0 0.0 0.00 0.00 0.00
20260906013026 0 0.0 0.0 0.00 0.00 0.00
20260906012520 0 0.0 0.0 0.00 0.00 0.00
20260906012026 0 0.0 0.0 0.00 0.00 0.00
20260906011520 0 0.0 0.0 0.00 0.00 0.00
20260906011027 0 0.0 0.0 0.00 0.00 0.00
20260906010521 0 0.0 0.0 0.00 0.00 0.00
20260906010015 0 0.0 0.0 0.00 0.00 0.00
20260906005521 0 0.0 0.0 0.00 0.00 0.00
20260906005045 0 0.0 0.0 0.00 0.00 0.00
20260906004522 0 0.0 0.0 0.00 0.00 0.00
20260906004015 0 0.0 0.0 0.00 0.00 0.00
20260906003522 0 0.0 0.0 0.00 0.00 0.00
20260906003016 0 0.0 0.0 0.00 0.00 0.00
20260906002522 0 0.0 0.0 0.00 0.00 0.00
20260906002016 0 0.0 0.0 0.00 0.00 0.00
20260906001523 0 0.0 0.0 0.00 0.00 0.00
20260906001046 0 0.0 0.0 0.00 0.00 0.00
20260906000523 0 0.0 0.0 0.00 0.00 0.00
20260906000017 0 0.0 0.0 0.00 0.00 0.00
20260905235523 0 0.0 0.0 0.00 0.00 0.00
20260905235017 0 0.0 0.0 0.00 0.00 0.00
20260905234524 0 0.0 0.0 0.00 0.00 0.00
20260905234047 0 0.0 0.0 0.00 0.00 0.00
20260905233524 0 0.0 0.0 0.00 0.00 0.00
20260905233018 0 0.0 0.0 0.00 0.00 0.00
20260905232554 0 0.0 0.0 0.00 0.00 0.00
20260905232018 0 0.0 0.0 0.00 0.00 0.00
20260905231524 0 0.0 0.0 0.00 0.00 0.00
20260905231019 0 0.0 0.0 0.00 0.00 0.00
20260905230525 0 0.0 0.0 0.00 0.00 0.00
20260905230019 0 0.0 0.0 0.00 0.00 0.00
20260905225525 0 0.0 0.0 0.00 0.00 0.00
20260905225019 0 0.0 0.0 0.00 0.00 0.00
20260905224555 0 0.0 0.0 0.00 0.00 0.00
20260905224023 0 0.0 0.0 0.00 0.00 0.00
20260905223517 0 0.0 0.0 0.00 0.00 0.00
20260905223338 0 0.0 0.0 0.00 0.00 0.00
20260905222617 0 0.0 0.0 0.00 0.00 0.00
20260905222229 0 0.0 0.0 0.00 0.00 0.00
20260905221518 0 0.0 0.0 0.00 0.00 0.00
20260905221024 0 0.0 0.0 0.00 0.00 0.00
20260905220518 0 0.0 0.0 0.00 0.00 0.00
20260905220024 0 0.0 0.0 0.00 0.00 0.00
20260905215518 0 0.0 0.0 0.00 0.00 0.00
20260905215024 0 0.0 0.0 0.00 0.00 0.00
20260905214519 0 0.0 0.0 0.00 0.00 0.00
20260905214025 0 0.0 0.0 0.00 0.00 0.00
20260905213519 0 0.0 0.0 0.00 0.00 0.00
20260905213025 0 0.0 0.0 0.00 0.00 0.00
20260905212520 0 0.0 0.0 0.00 0.00 0.00